Location: Corcelles
(46.1547°N, 4.7234°E)
Time: 20:39:23
(UTC+00:00)

Cosmos 1733 Rocket - Pass Details

Date: 14 July 2020
Orbit: 604 x 627 km, 82.5° (Epoch: 14 August)

Event Time Altitude Azimuth Distance (km) Brightness Sun altitude
Exits shadow 03:06:39 11° 235° (SW) 1,896 4.9 -8.6°
Maximum altitude 03:10:01 24° 289° (WNW) 1,253 4.4 -8.2°
Drops below altitude 10° 03:13:35 10° 344° (NNW) 1,963 6.0 -7.7°
Sets 03:16:10 0° 358° (N) 2,874 7.1 -7.4°
